• In Deutschland
  • Länderverzeichnis
  • Für 7 Tage
  • Wassertemperatur
  • Satellitenkarten
  • Wetterkarte
  • Widgets
  • user-avatar
    Anmelden

    Stündliche Wetter Itapicuru

    Heute, 21 September, Freitag

    Zeit Temperatur Niederschläge Wind Luftdruck Luftfeuchtigkeit
    00:00 +22°C° 0 mm 1 m/S 752 mmHg 94%
    01:00 +22°C° 0 mm 1 m/S 752 mmHg 95%
    02:00 +22°C° 0 mm 1 m/S 752 mmHg 95%
    03:00 +22°C° 0 mm 1 m/S 751 mmHg 95%
    04:00 +22°C° 0 mm 1 m/S 752 mmHg 95%
    05:00 +22°C° 0 mm 1 m/S 752 mmHg 94%
    06:00 +22°C° 0 mm 1 m/S 752 mmHg 94%
    07:00 +25°C° 0 mm 2 m/S 752 mmHg 81%
    08:00 +27°C° 0 mm 3 m/S 753 mmHg 68%
    09:00 +30°C° 0 mm 4 m/S 753 mmHg 55%
    10:00 +30°C° 0 mm 4 m/S 752 mmHg 53%
    11:00 +32°C° 0 mm 4 m/S 752 mmHg 51%
    12:00 +33°C° 0 mm 4 m/S 751 mmHg 50%
    13:00 +32°C° 0 mm 4 m/S 751 mmHg 50%
    14:00 +32°C° 0 mm 5 m/S 750 mmHg 51%
    15:00 +32°C° 0 mm 5 m/S 749 mmHg 51%
    16:00 +30°C° 0 mm 5 m/S 750 mmHg 59%
    17:00 +28°C° 0 mm 4 m/S 750 mmHg 66%
    18:00 +26°C° 0 mm 4 m/S 750 mmHg 73%
    19:00 +25°C° 0 mm 3 m/S 750 mmHg 80%
    20:00 +24°C° 0 mm 3 m/S 751 mmHg 86%
    21:00 +22°C° 0 mm 3 m/S 751 mmHg 93%
    22:00 +23°C° 0 mm 2 m/S 751 mmHg 94%
    23:00 +21°C° 0 mm 2 m/S 751 mmHg 95%

    Morgen, 22 September, Samstag

    Zeit Temperatur Niederschläge Wind Luftdruck Luftfeuchtigkeit
    00:00 +22°C° 0 mm 1 m/S 751 mmHg 97%
    01:00 +22°C° 0 mm 1 m/S 751 mmHg 97%
    02:00 +22°C° 0 mm 1 m/S 750 mmHg 97%
    03:00 +22°C° 0 mm 1 m/S 750 mmHg 97%
    04:00 +22°C° 0 mm 1 m/S 750 mmHg 97%
    05:00 +22°C° 0 mm 1 m/S 750 mmHg 97%
    06:00 +20°C° 0 mm 0 m/S 750 mmHg 96%
    07:00 +24°C° 0 mm 1 m/S 751 mmHg 85%
    08:00 +27°C° 0 mm 2 m/S 751 mmHg 74%
    09:00 +29°C° 0 mm 3 m/S 752 mmHg 62%
    10:00 +30°C° 0 mm 3 m/S 751 mmHg 59%
    11:00 +30°C° 0 mm 3 m/S 751 mmHg 57%
    12:00 +31°C° 0 mm 3 m/S 750 mmHg 54%
    13:00 +32°C° 0 mm 4 m/S 749 mmHg 53%
    14:00 +33°C° 0 mm 4 m/S 749 mmHg 52%
    15:00 +33°C° 0 mm 4 m/S 748 mmHg 51%
    16:00 +30°C° 0 mm 4 m/S 748 mmHg 58%
    17:00 +28°C° 0 mm 4 m/S 748 mmHg 65%
    18:00 +26°C° 0 mm 4 m/S 749 mmHg 72%
    19:00 +25°C° 0 mm 3 m/S 749 mmHg 79%
    20:00 +24°C° 0 mm 3 m/S 750 mmHg 86%
    21:00 +22°C° 0 mm 3 m/S 751 mmHg 93%
    22:00 +23°C° 0 mm 2 m/S 751 mmHg 94%
    23:00 +23°C° 0 mm 2 m/S 751 mmHg 96%

    übermorgen, 23 September, Sonntag

    Zeit Temperatur Niederschläge Wind Luftdruck Luftfeuchtigkeit
    00:00 +23°C° 0 mm 1 m/S 751 mmHg 97%
    01:00 +23°C° 0 mm 1 m/S 750 mmHg 97%
    02:00 +23°C° 0 mm 1 m/S 750 mmHg 97%
    03:00 +23°C° 0 mm 1 m/S 749 mmHg 97%
    04:00 +23°C° 0.1 mm 1 m/S 750 mmHg 96%
    05:00 +23°C° 0.1 mm 1 m/S 750 mmHg 95%
    06:00 +24°C° 0.1 mm 1 m/S 750 mmHg 93%
    07:00 +26°C° 0 mm 2 m/S 751 mmHg 83%
    08:00 +28°C° 0 mm 3 m/S 751 mmHg 72%
    09:00 +30°C° 0 mm 4 m/S 752 mmHg 62%
    10:00 +32°C° 0 mm 4 m/S 751 mmHg 58%
    11:00 +33°C° 0 mm 4 m/S 751 mmHg 54%
    12:00 +34°C° 0 mm 4 m/S 750 mmHg 50%
    13:00 +33°C° 0.1 mm 5 m/S 750 mmHg 52%
    14:00 +33°C° 0.1 mm 5 m/S 749 mmHg 53%
    15:00 +33°C° 0.1 mm 5 m/S 749 mmHg 55%
    16:00 +30°C° 0 mm 5 m/S 749 mmHg 63%
    17:00 +28°C° 0 mm 5 m/S 749 mmHg 70%
    18:00 +26°C° 0 mm 4 m/S 750 mmHg 77%
    19:00 +26°C° 0 mm 4 m/S 750 mmHg 82%
    20:00 +25°C° 0 mm 3 m/S 751 mmHg 87%
    21:00 +24°C° 0 mm 3 m/S 751 mmHg 92%
    22:00 +24°C° 0 mm 2 m/S 751 mmHg 94%
    23:00 +23°C° 0 mm 2 m/S 751 mmHg 95%

    24 September, Montag

    Zeit Temperatur Niederschläge Wind Luftdruck Luftfeuchtigkeit
    00:00 +23°C° 0 mm 2 m/S 751 mmHg 97%
    01:00 +23°C° 0.1 mm 2 m/S 751 mmHg 97%
    02:00 +23°C° 0.1 mm 2 m/S 750 mmHg 97%
    03:00 +23°C° 0.1 mm 2 m/S 750 mmHg 97%
    04:00 +23°C° 0.1 mm 1 m/S 751 mmHg 97%
    05:00 +23°C° 0.1 mm 1 m/S 751 mmHg 96%
    06:00 +23°C° 0.1 mm 1 m/S 751 mmHg 95%
    07:00 +25°C° 0.1 mm 3 m/S 752 mmHg 84%
    08:00 +27°C° 0.1 mm 4 m/S 752 mmHg 73%
    09:00 +29°C° 0.1 mm 5 m/S 752 mmHg 62%
    10:00 +30°C° 0.1 mm 5 m/S 752 mmHg 58%
    11:00 +32°C° 0.1 mm 6 m/S 751 mmHg 54%
    12:00 +33°C° 0.1 mm 6 m/S 751 mmHg 50%
    13:00 +33°C° 0 mm 6 m/S 750 mmHg 50%
    14:00 +33°C° 0 mm 6 m/S 750 mmHg 50%
    15:00 +32°C° 0 mm 6 m/S 749 mmHg 50%
    16:00 +30°C° 0 mm 5 m/S 750 mmHg 57%
    17:00 +28°C° 0 mm 5 m/S 750 mmHg 64%
    18:00 +26°C° 0 mm 4 m/S 750 mmHg 71%
    19:00 +25°C° 0 mm 3 m/S 751 mmHg 79%
    20:00 +24°C° 0 mm 3 m/S 751 mmHg 86%
    21:00 +23°C° 0 mm 2 m/S 751 mmHg 93%
    22:00 +23°C° 0 mm 2 m/S 751 mmHg 94%
    23:00 +21°C° 0 mm 2 m/S 751 mmHg 96%

    25 September, Dienstag

    Zeit Temperatur Niederschläge Wind Luftdruck Luftfeuchtigkeit
    00:00 +22°C° 0 mm 1 m/S 751 mmHg 97%
    01:00 +22°C° 0.1 mm 1 m/S 751 mmHg 96%
    02:00 +22°C° 0.1 mm 1 m/S 750 mmHg 96%
    03:00 +23°C° 0.1 mm 1 m/S 750 mmHg 96%
    04:00 +23°C° 0.2 mm 1 m/S 751 mmHg 95%
    05:00 +23°C° 0.2 mm 1 m/S 751 mmHg 94%
    06:00 +23°C° 0.2 mm 1 m/S 751 mmHg 93%
    07:00 +25°C° 0.3 mm 2 m/S 752 mmHg 87%
    08:00 +26°C° 0.3 mm 3 m/S 752 mmHg 81%
    09:00 +27°C° 0.3 mm 4 m/S 752 mmHg 75%
    10:00 +29°C° 0.1 mm 4 m/S 751 mmHg 68%
    11:00 +30°C° 0.1 mm 4 m/S 751 mmHg 60%
    12:00 +33°C° 0.1 mm 4 m/S 750 mmHg 53%
    13:00 +33°C° 0 mm 5 m/S 750 mmHg 52%
    14:00 +33°C° 0 mm 5 m/S 749 mmHg 52%
    15:00 +33°C° 0 mm 5 m/S 749 mmHg 51%
    16:00 +30°C° 0 mm 5 m/S 749 mmHg 59%
    17:00 +28°C° 0 mm 4 m/S 749 mmHg 66%
    18:00 +26°C° 0 mm 4 m/S 750 mmHg 74%
    19:00 +25°C° 0 mm 4 m/S 750 mmHg 81%
    20:00 +24°C° 0 mm 3 m/S 750 mmHg 87%
    21:00 +23°C° 0 mm 2 m/S 751 mmHg 94%
    22:00 +23°C° 0 mm 2 m/S 751 mmHg 95%
    23:00 +23°C° 0 mm 2 m/S 750 mmHg 96%

    26 September, Mittwoch

    Zeit Temperatur Niederschläge Wind Luftdruck Luftfeuchtigkeit
    00:00 +22°C° 0 mm 1 m/S 750 mmHg 97%
    01:00 +22°C° 0 mm 1 m/S 750 mmHg 97%
    02:00 +22°C° 0 mm 1 m/S 750 mmHg 97%
    03:00 +22°C° 0 mm 1 m/S 749 mmHg 97%
    04:00 +23°C° 0 mm 1 m/S 750 mmHg 96%
    05:00 +23°C° 0 mm 1 m/S 750 mmHg 95%
    06:00 +23°C° 0 mm 1 m/S 751 mmHg 95%
    07:00 +25°C° 0.1 mm 2 m/S 751 mmHg 85%
    08:00 +27°C° 0.1 mm 3 m/S 751 mmHg 75%
    09:00 +29°C° 0.1 mm 4 m/S 751 mmHg 66%
    10:00 +30°C° 0.1 mm 4 m/S 751 mmHg 61%
    11:00 +32°C° 0.1 mm 5 m/S 750 mmHg 56%
    12:00 +33°C° 0.1 mm 5 m/S 750 mmHg 52%
    13:00 +33°C° 0.1 mm 5 m/S 749 mmHg 53%
    14:00 +33°C° 0.1 mm 5 m/S 749 mmHg 54%
    15:00 +32°C° 0.1 mm 6 m/S 748 mmHg 55%
    16:00 +30°C° 0 mm 5 m/S 748 mmHg 62%
    17:00 +28°C° 0 mm 5 m/S 749 mmHg 69%
    18:00 +26°C° 0 mm 4 m/S 749 mmHg 76%
    19:00 +25°C° 0 mm 4 m/S 749 mmHg 81%
    20:00 +24°C° 0 mm 3 m/S 750 mmHg 87%
    21:00 +23°C° 0 mm 2 m/S 750 mmHg 93%
    22:00 +23°C° 0 mm 2 m/S 750 mmHg 94%
    23:00 +23°C° 0 mm 2 m/S 750 mmHg 96%
    Mehr zeigen